Zurück zum Katalog

WESTFORD NEEDLES *

AktivPO
NORAD 3267·DEBRIS·🇺🇸 United States

Gestartet May 9, 1963 von Vandenberg Space Force Base

Loading…

Nächste Überflüge (nächste 24 Stunden)

TLE

AktuellSource: Space-Track

Epoche: Sep 14, 2026, 09:59 UTC

1 03267U 63014CF  26257.41650028  .00000055  00000-0  40194-4 0  9992
2 03267  88.3710  70.4773 1686158 311.3319  35.4113 11.34168188552450

Verfolge WESTFORD NEEDLES * in Echtzeit mit AllMySat

Download on the App Store